Hourly Data Report for September 24, 2022

TORONTO INTL A
ONTARIO
Current Station Operator: NAVCAN

43°40'36.000" N
79°37'50.000" W
173.40 m
6158731
71624
YYZ

Download Data

Hourly Data (September 2022)
Hourly Data Report for September 24, 2022
TIME
LST
Temp Definition
°C
Dew Point Definition
°C
Rel Hum Definition
%
Precip. Amount Definition
mm

Wind Dir Definition
10's deg

Wind Spd Definition
km/h
Visibility Definition
km
Stn Press Definition
kPa
Hmdx Definition


Wind Chill Definition


Weather Definition


00:00 8.3 4.2 75   28 8 24.1 99.95     LegendNANA
01:00 7.4 5.4 87   26 9 24.1 99.94     Mostly Cloudy
02:00 8.1 4.9 80   28 9 24.1 99.88     LegendNANA
03:00 7.1 4.7 84   28 7 24.1 99.88     LegendNANA
04:00 6.3 4.8 90   26 10 24.1 99.88     Mainly Clear
05:00 7.4 5.3 86   27 7 24.1 99.85     LegendNANA
06:00 6.4 4.7 89   27 5 24.1 99.84     LegendNANA
07:00 9.1 6.5 83   27 8 24.1 99.83     Mostly Cloudy
08:00 11.3 5.7 68   36 2 24.1 99.80     LegendNANA
09:00 13.1 6.1 62   5 5 24.1 99.76     LegendNANA
10:00 14.5 4.9 52   36 2 24.1 99.73     Mostly Cloudy
11:00 16.1 5.1 48   27 4 24.1 99.66     LegendNANA
12:00 17.7 4.9 43   27 5 24.1 99.56     LegendNANA
13:00 16.7 6.1 49   19 15 24.1 99.47     Mostly Cloudy
14:00 17.0 6.7 50   15 10 24.1 99.35     LegendNANA
15:00 16.1 6.3 52   13 14 24.1 99.27     LegendNANA
16:00 15.6 6.7 55   15 15 24.1 99.22     Mostly Cloudy
17:00 16.1 7.6 57   15 11 24.1 99.19     LegendNANA
18:00 16.0 5.8 50   22 17 24.1 99.14     LegendNANA
19:00 15.2 7.8 61   23 18 24.1 99.12     Rain
20:00 15.2 8.5 64   21 7 24.1 99.07     LegendNANA
21:00 15.0 8.6 65   22 7 24.1 99.01     LegendNANA
22:00 15.1 7.8 61   19 4 24.1 98.95     Cloudy
23:00 14.8 8.6 66   14 6 24.1 98.87     LegendNANA

Notes on Data Quality.

Legend

  • E = Estimated
  • M = Missing
  • NA = Not Available*
  • [empty] = Indicates an unobserved value
Date modified: